This demonstration page uses our WeatherBlox Daily Observations layout. Learn more.

Left ArrowRight Arrow

39.12711, -84.51439

Hourly Observations for December 25, 2018

Temp ( °F °C ) Dew Point ( °F °C ) Humidity (%) Winds ( mph kmh ) Pressure ( in mb ) Visibility ( mi km ) Precip ( " mm )
12:53 am 00:53 Partly Cloudy 30 -1.1 27 -2.8 88 88 Calm 30.32 1027 10 16 0.00 0.00
1:53 am 01:53 Cloudy 31 -0.6 27 -2.8 85 85 NNE 5 7 30.31 1027 10 16 0.00 0.00
2:53 am 02:53 Mostly Cloudy 32 0 27 -2.8 82 82 Calm 30.32 1027 10 16 0.00 0.00
3:53 am 03:53 Clear 31 -0.6 27 -2.8 85 85 Calm 30.31 1026 10 16 0.00 0.00
4:53 am 04:53 Clear 30 -1.1 27 -2.8 88 88 Calm 30.31 1026 10 16 0.00 0.00
5:53 am 05:53 Mostly Clear 29 -1.7 26 -3.3 89 89 NE 5 7 30.32 1027 10 16 0.00 0.00
6:53 am 06:53 Cloudy 32 0 27 -2.8 82 82 Calm 30.33 1027 10 16 0.00 0.00
7:53 am 07:53 Cloudy 32 0 27 -2.8 82 82 Calm 30.34 1027 10 16 0.00 0.00
8:53 am 08:53 Cloudy 33 0.6 29 -1.7 85 85 Calm 30.36 1028 10 16 0.00 0.00
9:53 am 09:53 Cloudy 34 1.1 29 -1.7 82 82 Calm 30.38 1029 10 16 0.00 0.00
10:53 am 10:53 Cloudy 36 2.2 29 -1.7 76 76 Calm 30.39 1029 10 16 0.00 0.00
11:53 am 11:53 Mostly Cloudy 39 3.9 30 -1.1 70 70 NE 6 9 30.36 1028 10 16 0.00 0.00
12:53 pm 12:53 Mostly Cloudy 41 5 31 -0.6 67 67 ENE 3 6 30.34 1028 10 16 0.00 0.00
1:53 pm 13:53 Sunny 44 6.7 31 -0.6 60 60 NE 6 9 30.32 1027 10 16 0.00 0.00
2:53 pm 14:53 Mostly Cloudy 46 7.8 30 -1.1 54 54 NE 5 7 30.33 1027 10 16 0.00 0.00
3:53 pm 15:53 Partly Cloudy 46 7.8 32 0 58 58 ENE 12 19 30.34 1027 10 16 0.00 0.00
4:53 pm 16:53 Mostly Sunny 42 5.6 32 0 68 68 NE 9 15 30.35 1028 10 16 0.00 0.00
5:53 pm 17:53 Clear 38 3.3 30 -1.1 73 73 NE 5 7 30.37 1028 10 16 0.00 0.00
6:53 pm 18:53 Clear 33 0.6 30 -1.1 89 89 NE 5 7 30.38 1029 10 16 0.00 0.00
7:53 pm 19:53 Clear 34 1.1 30 -1.1 85 85 Calm 30.40 1030 10 16 0.00 0.00
8:53 pm 20:53 Clear 30 -1.1 28 -2.2 92 92 Calm 30.41 1030 9 14 0.00 0.00
9:53 pm 21:53 Clear 30 -1.1 28 -2.2 92 92 Calm 30.42 1030 8 13 0.00 0.00
10:53 pm 22:53 Clear 29 -1.7 26 -3.3 89 89 Calm 30.42 1030 7 11 0.00 0.00
11:15 pm 23:15 Clear with Mist and Fog 28 -2.2 27 -2.8 96 96 Calm 30.45 1031 2 3 0.00 0.00
11:23 pm 23:23 Clear with Mist and Fog 28 -2.2 27 -2.8 96 96 Calm 30.45 1031 3 5 0.00 0.00
11:53 pm 23:53 Clear with Mist and Fog 29 -1.7 27 -2.8 92 92 Calm 30.42 1030 6 10 0.00 0.00

Powered by AerisWeather